User: anonymous   Login
Location: Ethel Rock
(53.4667°N, 4.5667°W)
Time: 11:40:10
(UTC+00:00)
Language:

Cosmos 1674 - Orbit

View from above orbital plane
View from above orbital plane
View from above satellite
View from above satellite

Ground track
Ground track

The orbit data is extracted from the following two-line orbital elements,

1 15944U 85069A   21023.03915369  .00000754  00000-0  33275-4 0  9995
2 15944  82.5077   4.0564 0015496 223.3518 136.6499 15.20125571937738
Epoch (UTC): 23 January 2021 00:56:22
Eccentricity: 0.0015496
inclination: 82.5077°
perigee height: 495 km
apogee height: 516 km
right ascension of ascending node: 4.0564°
argument of perigee: 223.3518°
revolutions per day: 15.20125571
mean anomaly at epoch: 136.6499°
orbit number at epoch: 93773

The dashed part of the orbit path shows where the satellite is in the earth's shadow,  

DLR